AIZ1803 LLBG-LLER

Flight info

Callsign AIZ1803
Flight time N/A
Altitude 19000
Route TOMAL J10 NURIT
Aircraft A21N/M-SDE2E3FGHIRWXY/LB1

Departure

Time 2026-05-01 13:08
Airport Ben Gurion International Airport (LLBG)

Arrival

Time N/A
Airport Ramon International Airport (LLER)
Time Latitude Longitude Altitude Speed Heading
2026-05-01 12:50 32.00599 34.87493 119 ft 0 kts 243°
2026-05-01 12:50 32.00603 34.87501 119 ft 0 kts 243°
2026-05-01 13:00 32.00613 34.87525 118 ft 4 kts 244°
2026-05-01 13:01 32.00639 34.87568 118 ft 4 kts 187°
2026-05-01 13:01 32.00659 34.87560 119 ft 4 kts 121°
2026-05-01 13:01 32.00639 34.87597 119 ft 4 kts 122°
2026-05-01 13:02 32.00628 34.87619 122 ft 0 kts 121°
2026-05-01 13:07 32.01763 34.89220 118 ft 8 kts 301°
2026-05-01 13:07 32.01754 34.89141 120 ft 31 kts 260°
2026-05-01 13:07 32.01662 34.88538 121 ft 119 kts 260°
2026-05-01 13:08 32.01491 34.87366 594 ft 153 kts 264°
2026-05-01 13:08 32.01326 34.86073 1466 ft 165 kts 263°
2026-05-01 13:08 32.01139 34.84728 2435 ft 171 kts 259°
2026-05-01 13:08 32.00822 34.83235 3050 ft 205 kts 255°
2026-05-01 13:09 32.00423 34.81527 3858 ft 226 kts 256°
2026-05-01 13:09 32.00018 34.79714 4984 ft 232 kts 256°
2026-05-01 13:09 31.99616 34.77826 6004 ft 244 kts 257°
2026-05-01 13:09 31.99223 34.75850 7042 ft 256 kts 261°
2026-05-01 13:10 31.99376 34.73764 8296 ft 261 kts 286°
2026-05-01 13:10 31.99988 34.71726 9650 ft 267 kts 290°
2026-05-01 13:10 32.00680 34.69655 10767 ft 280 kts 290°
2026-05-01 13:10 32.01426 34.67394 11368 ft 311 kts 290°
2026-05-01 13:11 32.02220 34.64925 12146 ft 330 kts 289°
2026-05-01 13:11 32.02751 34.62272 13219 ft 337 kts 274°
2026-05-01 13:11 32.02978 34.59498 14297 ft 343 kts 282°
2026-05-01 13:11 32.03988 34.56935 15306 ft 352 kts 305°
2026-05-01 13:12 32.05840 34.55001 16324 ft 364 kts 326°
2026-05-01 13:12 32.08267 34.54002 17317 ft 379 kts 347°
2026-05-01 13:12 32.10919 34.54093 18203 ft 395 kts
2026-05-01 13:12 32.13521 34.55276 18710 ft 410 kts 26°
2026-05-01 13:13 32.15740 34.57454 18925 ft 420 kts 44°
2026-05-01 13:13 32.17599 34.60141 18963 ft 425 kts 52°
2026-05-01 13:13 32.18961 34.63273 18961 ft 438 kts 70°
2026-05-01 13:13 32.19506 34.66929 18960 ft 465 kts 88°
2026-05-01 13:14 32.19153 34.70774 18965 ft 478 kts 104°
2026-05-01 13:14 32.17938 34.74420 18956 ft 478 kts 121°
2026-05-01 13:14 32.16017 34.77544 18967 ft 476 kts 133°
2026-05-01 13:14 32.13883 34.80527 18967 ft 476 kts 132°
2026-05-01 13:15 32.11812 34.83593 18965 ft 477 kts 130°
2026-05-01 13:15 32.09824 34.86738 18967 ft 478 kts 128°
2026-05-01 13:15 32.07896 34.89930 18965 ft 478 kts 127°
2026-05-01 13:15 32.05998 34.93154 18965 ft 479 kts 127°
2026-05-01 13:16 32.04117 34.96394 18968 ft 479 kts 127°
2026-05-01 13:16 32.02244 34.99643 18964 ft 479 kts 127°
2026-05-01 13:16 32.00379 35.02890 18965 ft 479 kts 127°
2026-05-01 13:17 31.94776 35.12661 18965 ft 480 kts 126°
2026-05-01 13:17 31.92905 35.15923 18963 ft 480 kts 127°
2026-05-01 13:18 31.89164 35.22436 18969 ft 480 kts 127°
2026-05-01 13:18 31.87294 35.25688 18953 ft 480 kts 127°
2026-05-01 13:18 31.85450 35.28892 18960 ft 479 kts 127°
2026-05-01 13:18 31.83586 35.32129 18959 ft 478 kts 127°
2026-05-01 13:19 31.81722 35.35362 18956 ft 478 kts 127°
2026-05-01 13:19 31.79856 35.38598 18955 ft 477 kts 127°
2026-05-01 13:19 31.76121 35.45063 18940 ft 477 kts 127°
2026-05-01 13:20 31.74375 35.48379 18953 ft 479 kts 121°
2026-05-01 13:20 31.72585 35.51654 18946 ft 474 kts 134°
2026-05-01 13:20 31.70152 35.54202 18957 ft 465 kts 150°
2026-05-01 13:21 31.64202 35.56418 18962 ft 444 kts 184°
2026-05-01 13:21 31.61180 35.55952 18961 ft 434 kts 200°
2026-05-01 13:21 31.58499 35.54519 18952 ft 426 kts 217°
2026-05-01 13:21 31.56291 35.52262 18952 ft 420 kts 230°
2026-05-01 13:22 31.54432 35.49626 18961 ft 419 kts 234°
2026-05-01 13:22 31.52567 35.46991 18936 ft 422 kts 229°
2026-05-01 13:22 31.50350 35.44717 18960 ft 427 kts 219°
2026-05-01 13:22 31.47759 35.42968 18946 ft 431 kts 208°
2026-05-01 13:23 31.44935 35.41723 18946 ft 436 kts 201°
2026-05-01 13:23 31.41987 35.40834 18949 ft 438 kts 197°
2026-05-01 13:23 31.38986 35.40148 18936 ft 440 kts 194°
2026-05-01 13:23 31.35965 35.39550 18940 ft 440 kts 193°
2026-05-01 13:24 31.32935 35.39024 18946 ft 441 kts 191°
2026-05-01 13:24 31.29915 35.38651 18938 ft 442 kts 189°
2026-05-01 13:24 31.26840 35.38349 18945 ft 443 kts 189°
2026-05-01 13:25 31.20686 35.37796 18941 ft 443 kts 189°
2026-05-01 13:25 31.17620 35.37507 18937 ft 443 kts 189°
2026-05-01 13:25 31.14549 35.37207 18936 ft 442 kts 189°
2026-05-01 13:25 31.11481 35.36898 18936 ft 442 kts 189°
2026-05-01 13:26 31.08417 35.36585 18930 ft 442 kts 189°
2026-05-01 13:26 31.05347 35.36269 18944 ft 442 kts 189°
2026-05-01 13:26 31.02284 35.35953 18945 ft 442 kts 189°
2026-05-01 13:26 30.99261 35.35641 18944 ft 442 kts 189°
2026-05-01 13:27 30.96203 35.35325 18935 ft 441 kts 190°
2026-05-01 13:27 30.93200 35.34687 18929 ft 436 kts 199°
2026-05-01 13:27 30.87567 35.32204 18919 ft 431 kts 208°
2026-05-01 13:28 30.82113 35.29278 18930 ft 431 kts 208°
2026-05-01 13:28 30.79384 35.27832 18930 ft 431 kts 208°
2026-05-01 13:29 30.73916 35.25041 18931 ft 432 kts 207°
2026-05-01 13:29 30.68388 35.22311 18923 ft 432 kts 207°
2026-05-01 13:30 30.57295 35.16889 18922 ft 432 kts 206°
2026-05-01 13:31 30.51444 35.15034 18922 ft 439 kts 195°
2026-05-01 13:31 30.42576 35.13487 16544 ft 421 kts 192°
2026-05-01 13:32 30.36779 35.12485 13856 ft 419 kts 192°
2026-05-01 13:33 30.28362 35.10918 10267 ft 399 kts 192°
2026-05-01 13:33 30.22939 35.09892 8441 ft 393 kts 192°
2026-05-01 13:34 30.19604 35.09211 8063 ft 390 kts 192°
2026-05-01 13:45 30.18712 35.09025 8206 ft 390 kts 191°
2026-05-01 13:45 30.16081 35.08480 7998 ft 389 kts 192°
2026-05-01 13:45 30.13420 35.07927 8027 ft 388 kts 192°
2026-05-01 13:45 30.10759 35.07375 8016 ft 388 kts 192°
2026-05-01 13:46 30.08098 35.06824 8026 ft 389 kts 192°
2026-05-01 13:46 30.05485 35.06301 8008 ft 364 kts 192°
2026-05-01 13:46 30.03109 35.05842 7998 ft 329 kts 193°
2026-05-01 13:46 30.00949 35.05426 7989 ft 300 kts 192°
2026-05-01 13:47 29.98933 35.05033 8019 ft 290 kts 193°
2026-05-01 13:47 29.96956 35.04645 7859 ft 285 kts 193°
2026-05-01 13:47 29.95006 35.04259 7313 ft 284 kts 193°
2026-05-01 13:47 29.93048 35.03875 7053 ft 287 kts 193°
2026-05-01 13:48 29.91074 35.03489 7004 ft 288 kts 194°
2026-05-01 13:48 29.89761 35.03234 7001 ft 289 kts 194°
2026-05-01 13:48 29.87781 35.02848 6995 ft 288 kts 193°
2026-05-01 13:48 29.85813 35.02468 6991 ft 282 kts 193°
2026-05-01 13:49 29.83951 35.02118 6921 ft 262 kts 193°
2026-05-01 13:49 29.82206 35.01720 6740 ft 248 kts 202°
2026-05-01 13:49 29.80622 35.01026 6454 ft 241 kts 207°
2026-05-01 13:49 29.79099 35.00267 6136 ft 237 kts 209°
2026-05-01 13:50 29.77593 34.99503 6003 ft 236 kts 208°
2026-05-01 13:50 29.76092 34.98745 5991 ft 234 kts 208°
2026-05-01 13:50 29.74603 34.97994 5991 ft 233 kts 208°
2026-05-01 13:50 29.73121 34.97256 5990 ft 232 kts 208°
2026-05-01 13:51 29.71596 34.96650 5992 ft 236 kts 193°
2026-05-01 13:51 29.69966 34.96482 5991 ft 240 kts 186°
2026-05-01 13:51 29.68290 34.96429 5999 ft 241 kts 185°
2026-05-01 13:51 29.66606 34.96394 5977 ft 241 kts 186°
2026-05-01 13:52 29.64938 34.96356 5636 ft 237 kts 185°
2026-05-01 13:52 29.63290 34.96315 5043 ft 237 kts 185°
2026-05-01 13:52 29.61629 34.96269 4409 ft 238 kts 184°
2026-05-01 13:52 29.59966 34.96221 3745 ft 240 kts 184°
2026-05-01 13:53 29.58283 34.96171 3242 ft 243 kts 184°
2026-05-01 13:53 29.55118 34.96602 2992 ft 221 kts 144°
2026-05-01 13:53 29.54312 34.97963 3004 ft 204 kts 98°
2026-05-01 13:54 29.54553 34.99478 2990 ft 191 kts 50°
2026-05-01 13:54 29.55602 35.00240 2956 ft 179 kts
2026-05-01 13:54 29.56847 35.00411 2370 ft 182 kts
2026-05-01 13:54 29.58086 35.00731 1269 ft 187 kts 14°
2026-05-01 13:55 29.59415 35.01204 395 ft 207 kts 13°
2026-05-01 13:55 29.60689 35.01652 150 ft 170 kts 17°